{"data":{"norad_id":49434,"intl_designator":"2021-104AC","name":"STARLINK-3134","alt_names":[],"object_type":"PAYLOAD","status":"ACTIVE","operator":null,"country":"US","launch_date":"2021-11-13","launch_site_code":"AFETR","launch_vehicle":null,"mission":null,"orbit_class":"UNKNOWN","rcs_meters":null,"size_class":null,"mass_kg":null,"dimensions":null,"purposes":["comms"],"wikipedia_slug":null,"has_3d_model":false,"image_url":null,"decayed_at":null,"tle_current":{"epoch":"2026-09-20T02:23:30.502176Z","epoch_age_seconds":75906,"freshness":"FRESH","line1":"1 49434U 21104AC  26263.09965859  .00011702  00000+0  68880-3 0  9995","line2":"2 49434  53.2159  75.2123 0002233 104.4148 255.7094 15.12053948269088","mean_motion":15.12053948,"eccentricity":0.0002233,"inclination_deg":53.2159,"raan_deg":75.2123,"arg_perigee_deg":104.4148,"mean_anomaly_deg":255.7094,"bstar":0.0006888,"rev_number":26908,"period_min":95.234697274174,"perigee_km":528.39446760862,"apogee_km":531.47961347513,"semimajor_km":6908.0740405419,"source":"CELESTRAK","updated_at":"2026-09-20T09:00:39.259911Z"}}}